B45 EFTU-EFKU

Flight info

Callsign B45
Flight time 0h 43m
Altitude 35000
Route UVOPA DCT ERNUT DCT TUNOV DCT ATLUL
Aircraft HAWK/M-SDGIRY/C

Departure

Time 2026-04-28 12:09
Airport Turku Airport (EFTU)

Arrival

Time 2026-04-28 12:52
Airport Kuopio Airport (EFKU)
Time Latitude Longitude Altitude Speed Heading
2026-04-28 12:03 60.51327 22.28775 146 ft 0 kts 176°
2026-04-28 12:06 60.51300 22.28735 146 ft 4 kts 263°
2026-04-28 12:06 60.51299 22.28677 145 ft 5 kts 282°
2026-04-28 12:06 60.51342 22.28571 141 ft 14 kts 338°
2026-04-28 12:06 60.51382 22.28466 142 ft 12 kts 266°
2026-04-28 12:07 60.51375 22.28231 143 ft 18 kts 264°
2026-04-28 12:07 60.51363 22.27979 147 ft 18 kts 265°
2026-04-28 12:07 60.51353 22.27731 150 ft 18 kts 266°
2026-04-28 12:07 60.51341 22.27463 152 ft 20 kts 265°
2026-04-28 12:08 60.51328 22.27165 148 ft 24 kts 266°
2026-04-28 12:08 60.51439 22.27073 147 ft 18 kts 56°
2026-04-28 12:08 60.51449 22.27144 147 ft 0 kts 84°
2026-04-28 12:08 60.51472 22.27623 148 ft 90 kts 85°
2026-04-28 12:09 60.51573 22.29715 368 ft 199 kts 79°
2026-04-28 12:09 60.51750 22.33162 1321 ft 279 kts 78°
2026-04-28 12:09 60.51938 22.36842 2809 ft 233 kts 75°
2026-04-28 12:09 60.52556 22.39772 3742 ft 238 kts 46°
2026-04-28 12:10 60.53933 22.42135 4305 ft 284 kts 21°
2026-04-28 12:10 60.55848 22.42674 6672 ft 272 kts
2026-04-28 12:10 60.57727 22.42595 9742 ft 266 kts 359°
2026-04-28 12:10 60.59534 22.42423 12621 ft 253 kts 359°
2026-04-28 12:11 60.61281 22.42241 14988 ft 254 kts 359°
2026-04-28 12:11 60.63053 22.42081 16879 ft 257 kts 359°
2026-04-28 12:11 60.64855 22.41956 18647 ft 261 kts
2026-04-28 12:11 60.66685 22.42161 20121 ft 266 kts
2026-04-28 12:12 60.68562 22.42542 21375 ft 280 kts
2026-04-28 12:12 60.70573 22.42742 22418 ft 298 kts
2026-04-28 12:12 60.72689 22.42996 23582 ft 311 kts
2026-04-28 12:12 60.74805 22.44127 24543 ft 325 kts 27°
2026-04-28 12:13 60.76508 22.47315 25506 ft 342 kts 47°
2026-04-28 12:13 60.77903 22.51373 26535 ft 355 kts 53°
2026-04-28 12:13 60.79156 22.55810 27568 ft 365 kts 57°
2026-04-28 12:13 60.80358 22.60467 28587 ft 375 kts 58°
2026-04-28 12:14 60.81553 22.65282 29582 ft 384 kts 59°
2026-04-28 12:14 60.82569 22.70425 30486 ft 396 kts 66°
2026-04-28 12:14 60.83499 22.75804 31230 ft 403 kts 64°
2026-04-28 12:14 60.84588 22.81159 31961 ft 411 kts 63°
2026-04-28 12:15 60.85621 22.86710 32673 ft 421 kts 65°
2026-04-28 12:15 60.86676 22.92372 33386 ft 428 kts 64°
2026-04-28 12:15 60.87790 22.98107 34071 ft 437 kts 65°
2026-04-28 12:15 60.88878 23.04002 34620 ft 446 kts 65°
2026-04-28 12:16 60.90013 23.10034 34929 ft 460 kts 65°
2026-04-28 12:16 60.91190 23.16260 35080 ft 474 kts 66°
2026-04-28 12:16 60.93565 23.29064 35179 ft 482 kts 66°
2026-04-28 12:17 60.95917 23.41806 35197 ft 483 kts 66°
2026-04-28 12:17 60.98303 23.54763 35200 ft 484 kts 66°
2026-04-28 12:18 60.99191 23.59639 35198 ft 484 kts 66°
2026-04-28 12:18 61.00881 23.68888 35169 ft 485 kts 66°
2026-04-28 12:19 61.02616 23.78474 35157 ft 485 kts 66°
2026-04-28 12:19 61.04270 23.87629 35158 ft 485 kts 66°
2026-04-28 12:20 61.06623 24.00749 35155 ft 491 kts 67°
2026-04-28 12:20 61.08987 24.14023 35148 ft 493 kts 67°
2026-04-28 12:21 61.11337 24.27307 35147 ft 492 kts 67°
2026-04-28 12:21 61.13675 24.40618 35143 ft 492 kts 67°
2026-04-28 12:22 61.15999 24.53942 35143 ft 492 kts 68°
2026-04-28 12:22 61.18312 24.67293 35143 ft 492 kts 68°
2026-04-28 12:23 61.20601 24.80610 35137 ft 492 kts 68°
2026-04-28 12:23 61.22886 24.93996 35129 ft 492 kts 68°
2026-04-28 12:24 61.25130 25.07234 35130 ft 492 kts 68°
2026-04-28 12:24 61.27344 25.20363 35128 ft 491 kts 67°
2026-04-28 12:25 61.28974 25.26514 35123 ft 485 kts 50°
2026-04-28 12:25 61.31192 25.31794 35125 ft 484 kts 45°
2026-04-28 12:25 61.36205 25.41092 35120 ft 483 kts 35°
2026-04-28 12:26 61.41336 25.49990 35121 ft 483 kts 38°
2026-04-28 12:26 61.46373 25.58641 35120 ft 484 kts 39°
2026-04-28 12:27 61.51572 25.67642 35119 ft 486 kts 39°
2026-04-28 12:27 61.56756 25.76749 35117 ft 486 kts 38°
2026-04-28 12:28 61.61931 25.85883 35111 ft 486 kts 39°
2026-04-28 12:28 61.67106 25.95010 35115 ft 485 kts 39°
2026-04-28 12:29 61.74850 26.08773 35111 ft 485 kts 39°
2026-04-28 12:30 61.80007 26.17977 35116 ft 485 kts 39°
2026-04-28 12:30 61.85152 26.27211 35112 ft 485 kts 39°
2026-04-28 12:31 61.90289 26.36481 35108 ft 485 kts 39°
2026-04-28 12:31 61.95420 26.45775 35110 ft 485 kts 39°
2026-04-28 12:32 62.00550 26.55106 35107 ft 485 kts 39°
2026-04-28 12:32 62.05640 26.64413 35104 ft 485 kts 39°
2026-04-28 12:33 62.10754 26.73806 35105 ft 485 kts 39°
2026-04-28 12:33 62.15866 26.83240 35108 ft 485 kts 40°
2026-04-28 12:34 62.20977 26.92714 35081 ft 486 kts 40°
2026-04-28 12:34 62.23461 26.97337 34397 ft 462 kts 40°
2026-04-28 12:34 62.25845 27.01837 32785 ft 450 kts 41°
2026-04-28 12:34 62.28144 27.06328 31085 ft 444 kts 44°
2026-04-28 12:35 62.30212 27.11198 29344 ft 439 kts 52°
2026-04-28 12:35 62.32110 27.16268 27655 ft 431 kts 52°
2026-04-28 12:35 62.34108 27.21007 26029 ft 423 kts 49°
2026-04-28 12:35 62.36018 27.25726 24529 ft 414 kts 53°
2026-04-28 12:36 62.37865 27.30408 22999 ft 406 kts 51°
2026-04-28 12:36 62.39718 27.34875 21594 ft 391 kts 50°
2026-04-28 12:36 62.41446 27.39225 20342 ft 373 kts 50°
2026-04-28 12:36 62.43101 27.43367 19147 ft 356 kts 49°
2026-04-28 12:37 62.44700 27.47303 17930 ft 340 kts 48°
2026-04-28 12:37 62.46221 27.51105 16444 ft 330 kts 48°
2026-04-28 12:37 62.47697 27.54812 15039 ft 320 kts 48°
2026-04-28 12:37 62.49135 27.58402 13646 ft 312 kts 47°
2026-04-28 12:38 62.50536 27.61904 12155 ft 304 kts 47°
2026-04-28 12:38 62.51918 27.65379 11045 ft 306 kts 48°
2026-04-28 12:38 62.53297 27.68854 10504 ft 300 kts 48°
2026-04-28 12:38 62.54719 27.71996 10267 ft 285 kts 33°
2026-04-28 12:39 62.56547 27.73203 10213 ft 271 kts
2026-04-28 12:39 62.58351 27.73279 9738 ft 253 kts
2026-04-28 12:39 62.60076 27.73220 8752 ft 249 kts
2026-04-28 12:39 62.61793 27.73212 7799 ft 244 kts
2026-04-28 12:40 62.63480 27.73278 6855 ft 241 kts
2026-04-28 12:40 62.65142 27.73430 5977 ft 236 kts
2026-04-28 12:40 62.66581 27.74516 5829 ft 204 kts 22°
2026-04-28 12:40 62.67812 27.75649 5604 ft 184 kts 21°
2026-04-28 12:41 62.68613 27.76334 5237 ft 183 kts 18°
2026-04-28 12:41 62.69820 27.77147 4737 ft 181 kts 12°
2026-04-28 12:41 62.71048 27.77691 4299 ft 179 kts
2026-04-28 12:41 62.72280 27.78074 3863 ft 179 kts
2026-04-28 12:42 62.73516 27.78379 3537 ft 180 kts
2026-04-28 12:42 62.74775 27.78462 3543 ft 179 kts 358°
2026-04-28 12:42 62.76015 27.78376 3443 ft 178 kts 358°
2026-04-28 12:42 62.77247 27.78358 3376 ft 175 kts
2026-04-28 12:43 62.78434 27.78396 3200 ft 168 kts
2026-04-28 12:43 62.79609 27.78404 2955 ft 168 kts 359°
2026-04-28 12:43 62.80675 27.79087 2861 ft 165 kts 39°
2026-04-28 12:43 62.81424 27.81237 2810 ft 196 kts 50°
2026-04-28 12:44 62.82140 27.83984 2801 ft 215 kts 60°
2026-04-28 12:44 62.82653 27.86956 2796 ft 203 kts 64°
2026-04-28 12:44 62.83130 27.89749 2786 ft 189 kts 60°
2026-04-28 12:44 62.83651 27.92302 2788 ft 178 kts 56°
2026-04-28 12:45 62.84482 27.93865 2797 ft 150 kts
2026-04-28 12:45 62.85503 27.93579 2775 ft 150 kts 347°
2026-04-28 12:45 62.86514 27.92905 2775 ft 155 kts 342°
2026-04-28 12:45 62.87507 27.92030 2787 ft 152 kts 339°
2026-04-28 12:46 62.88461 27.91097 2789 ft 149 kts 339°
2026-04-28 12:46 62.89421 27.90154 2618 ft 156 kts 339°
2026-04-28 12:46 62.90439 27.89200 2381 ft 160 kts 340°
2026-04-28 12:46 62.91454 27.88282 2162 ft 156 kts 340°
2026-04-28 12:47 62.92454 27.87380 1934 ft 154 kts 341°
2026-04-28 12:47 62.93438 27.86486 1701 ft 152 kts 340°
2026-04-28 12:47 62.94408 27.85604 1464 ft 147 kts 339°
2026-04-28 12:47 62.95309 27.84767 1219 ft 134 kts 339°
2026-04-28 12:48 62.96128 27.83999 1019 ft 122 kts 339°
2026-04-28 12:48 62.96903 27.83274 842 ft 121 kts 340°
2026-04-28 12:48 62.97679 27.82567 694 ft 121 kts 340°
2026-04-28 12:48 62.98464 27.81858 553 ft 123 kts 339°
2026-04-28 12:49 62.99258 27.81119 412 ft 124 kts 339°
2026-04-28 12:49 63.00034 27.80397 311 ft 110 kts 339°
2026-04-28 12:49 63.00759 27.79732 484 ft 133 kts 338°
2026-04-28 12:49 63.01803 27.78738 1133 ft 189 kts 338°
2026-04-28 12:50 63.02986 27.79161 1914 ft 200 kts 54°
2026-04-28 12:50 63.02593 27.82050 2439 ft 232 kts 148°
2026-04-28 12:50 63.01540 27.82648 2799 ft 219 kts 166°
2026-04-28 12:50 63.00094 27.83553 2308 ft 216 kts 160°
2026-04-28 12:51 62.98653 27.84668 1672 ft 215 kts 157°
2026-04-28 12:51 62.97795 27.83838 1669 ft 139 kts 291°
2026-04-28 12:51 62.98425 27.81884 1046 ft 161 kts 329°
2026-04-28 12:51 62.99416 27.80964 431 ft 147 kts 340°
2026-04-28 12:52 63.00259 27.80199 306 ft 117 kts 338°
2026-04-28 12:52 63.00861 27.79657 323 ft 37 kts 338°
2026-04-28 12:52 63.00985 27.79544 327 ft 16 kts 338°
2026-04-28 12:52 63.01078 27.79454 329 ft 19 kts 330°
2026-04-28 12:53 63.01092 27.79164 327 ft 19 kts 247°
2026-04-28 12:53 63.01046 27.79037 326 ft 5 kts 184°
2026-04-28 12:53 63.00998 27.79066 325 ft 11 kts 156°
2026-04-28 12:53 63.00897 27.79157 326 ft 18 kts 159°
2026-04-28 12:54 63.00788 27.79258 323 ft 17 kts 156°
2026-04-28 12:54 63.00681 27.79357 319 ft 17 kts 169°
2026-04-28 12:54 63.00588 27.79252 316 ft 15 kts 215°
2026-04-28 12:54 63.00509 27.79127 316 ft 13 kts 216°
2026-04-28 12:55 63.00443 27.79022 316 ft 11 kts 216°
2026-04-28 12:55 63.00404 27.78966 316 ft 7 kts 205°
2026-04-28 12:55 63.00382 27.78990 315 ft 6 kts 80°
2026-04-28 12:55 63.00395 27.79068 316 ft 0 kts 69°